• în Republica Moldova
  • Lista ţărilor
  • Pe 7 zile
  • Temperatura apei
  • Hartă satelitară
  • Meteo pe hartă
  • Widget-uri
  • user-avatar
    Intrare

    Meteo pe oră la Sydney

    Astăzi, 26 Februarie, Duminică

    Timp Temperatura Precipitaţii Vânt Presiune Umiditate
    00:00 +19°C° 0,9 mm 4 m/s 764 mmHg 92%
    01:00 +19°C° 0,9 mm 4 m/s 764 mmHg 93%
    02:00 +19°C° 1,1 mm 4 m/s 764 mmHg 94%
    03:00 +19°C° 1,1 mm 4 m/s 764 mmHg 95%
    04:00 +19°C° 0 mm 5 m/s 764 mmHg 95%
    05:00 +19°C° 0,4 mm 5 m/s 764 mmHg 94%
    06:00 +19°C° 0,4 mm 5 m/s 764 mmHg 93%
    07:00 +19°C° 0,4 mm 5 m/s 765 mmHg 92%
    08:00 +20°C° 0,2 mm 5 m/s 765 mmHg 87%
    09:00 +21°C° 0,2 mm 5 m/s 765 mmHg 81%
    10:00 +22°C° 0,2 mm 6 m/s 765 mmHg 75%
    11:00 +23°C° 0,2 mm 6 m/s 765 mmHg 69%
    12:00 +24°C° 0,2 mm 6 m/s 765 mmHg 63%
    13:00 +26°C° 0,2 mm 6 m/s 765 mmHg 57%
    14:00 +26°C° 0,1 mm 6 m/s 765 mmHg 56%
    15:00 +26°C° 0,1 mm 6 m/s 764 mmHg 56%
    16:00 +26°C° 0,1 mm 6 m/s 764 mmHg 56%
    17:00 +25°C° 0,1 mm 5 m/s 765 mmHg 63%
    18:00 +22°C° 0,1 mm 5 m/s 765 mmHg 71%
    19:00 +21°C° 0,1 mm 4 m/s 765 mmHg 79%
    20:00 +21°C° 0,6 mm 4 m/s 766 mmHg 81%
    21:00 +21°C° 0,6 mm 4 m/s 766 mmHg 82%
    22:00 +21°C° 0,6 mm 5 m/s 766 mmHg 83%
    23:00 +20°C° 1 mm 5 m/s 766 mmHg 87%

    Mâine, 27 Februarie, Luni

    Timp Temperatura Precipitaţii Vânt Presiune Umiditate
    00:00 +20°C° 1 mm 5 m/s 766 mmHg 91%
    01:00 +19°C° 1 mm 5 m/s 765 mmHg 95%
    02:00 +19°C° 0,5 mm 5 m/s 765 mmHg 96%
    03:00 +19°C° 0,5 mm 5 m/s 765 mmHg 96%
    04:00 +18°C° 0,5 mm 4 m/s 765 mmHg 97%
    05:00 +19°C° 0,2 mm 4 m/s 765 mmHg 96%
    06:00 +19°C° 0,2 mm 4 m/s 766 mmHg 94%
    07:00 +20°C° 0,2 mm 4 m/s 766 mmHg 93%
    08:00 +22°C° 0,1 mm 4 m/s 766 mmHg 83%
    09:00 +23°C° 0,1 mm 5 m/s 766 mmHg 73%
    10:00 +26°C° 0,1 mm 5 m/s 767 mmHg 63%
    11:00 +27°C° 0,1 mm 5 m/s 766 mmHg 58%
    12:00 +28°C° 0,1 mm 5 m/s 766 mmHg 52%
    13:00 +28°C° 0,1 mm 5 m/s 765 mmHg 47%
    14:00 +28°C° 0,2 mm 5 m/s 765 mmHg 50%
    15:00 +28°C° 0,2 mm 5 m/s 765 mmHg 52%
    16:00 +27°C° 0,2 mm 5 m/s 765 mmHg 55%
    17:00 +26°C° 0,3 mm 5 m/s 765 mmHg 64%
    18:00 +23°C° 0,3 mm 4 m/s 765 mmHg 74%
    19:00 +21°C° 0,3 mm 4 m/s 766 mmHg 84%
    20:00 +21°C° 0,3 mm 3 m/s 766 mmHg 86%
    21:00 +21°C° 0,3 mm 3 m/s 766 mmHg 87%
    22:00 +20°C° 0,3 mm 3 m/s 766 mmHg 89%
    23:00 +20°C° 0,4 mm 3 m/s 766 mmHg 90%

    Poimâine, 28 Februarie, Marţi

    Timp Temperatura Precipitaţii Vânt Presiune Umiditate
    00:00 +20°C° 0,4 mm 3 m/s 766 mmHg 91%
    01:00 +20°C° 0,4 mm 2 m/s 765 mmHg 91%
    02:00 +20°C° 0,3 mm 2 m/s 765 mmHg 92%
    03:00 +20°C° 0,3 mm 2 m/s 765 mmHg 93%
    04:00 +20°C° 0,3 mm 2 m/s 765 mmHg 93%
    05:00 +20°C° 0,3 mm 3 m/s 765 mmHg 91%
    06:00 +21°C° 0,3 mm 3 m/s 765 mmHg 89%
    07:00 +21°C° 0,3 mm 3 m/s 766 mmHg 86%
    08:00 +24°C° 0,8 mm 3 m/s 766 mmHg 78%
    09:00 +26°C° 0,8 mm 4 m/s 766 mmHg 70%
    10:00 +28°C° 0,8 mm 4 m/s 766 mmHg 62%
    11:00 +28°C° 0,5 mm 4 m/s 766 mmHg 59%
    12:00 +29°C° 0,5 mm 4 m/s 765 mmHg 56%
    13:00 +30°C° 0,5 mm 4 m/s 765 mmHg 53%
    14:00 +29°C° 0,2 mm 4 m/s 765 mmHg 54%
    15:00 +29°C° 0,2 mm 4 m/s 764 mmHg 56%
    16:00 +29°C° 0,2 mm 4 m/s 764 mmHg 57%
    17:00 +27°C° 0,2 mm 4 m/s 764 mmHg 66%
    18:00 +25°C° 0,2 mm 4 m/s 765 mmHg 74%
    19:00 +22°C° 0,2 mm 4 m/s 765 mmHg 83%
    20:00 +22°C° 0,2 mm 3 m/s 765 mmHg 86%
    21:00 +21°C° 0,2 mm 3 m/s 765 mmHg 89%
    22:00 +21°C° 0,2 mm 3 m/s 765 mmHg 92%
    23:00 +21°C° 0,3 mm 3 m/s 765 mmHg 92%

    1 Martie, Miercuri

    Timp Temperatura Precipitaţii Vânt Presiune Umiditate
    00:00 +21°C° 0,3 mm 3 m/s 765 mmHg 93%
    01:00 +21°C° 0,3 mm 3 m/s 764 mmHg 93%
    02:00 +21°C° 0,3 mm 3 m/s 764 mmHg 93%
    03:00 +21°C° 0,3 mm 3 m/s 764 mmHg 94%
    04:00 +21°C° 0,3 mm 3 m/s 763 mmHg 94%
    05:00 +21°C° 0,3 mm 3 m/s 763 mmHg 92%
    06:00 +21°C° 0,3 mm 3 m/s 764 mmHg 90%
    07:00 +22°C° 0,3 mm 4 m/s 764 mmHg 89%
    08:00 +23°C° 1,1 mm 4 m/s 764 mmHg 81%
    09:00 +26°C° 1,1 mm 4 m/s 764 mmHg 74%
    10:00 +27°C° 1,1 mm 4 m/s 764 mmHg 67%
    11:00 +28°C° 0,7 mm 4 m/s 763 mmHg 64%
    12:00 +28°C° 0,7 mm 4 m/s 763 mmHg 60%
    13:00 +29°C° 0,7 mm 4 m/s 762 mmHg 57%
    14:00 +29°C° 0,2 mm 4 m/s 762 mmHg 58%
    15:00 +29°C° 0,2 mm 4 m/s 761 mmHg 60%
    16:00 +28°C° 0,2 mm 4 m/s 761 mmHg 61%
    17:00 +27°C° 0,2 mm 3 m/s 761 mmHg 68%
    18:00 +25°C° 0,2 mm 3 m/s 762 mmHg 76%
    19:00 +23°C° 0,2 mm 2 m/s 762 mmHg 84%
    20:00 +23°C° 0,8 mm 2 m/s 762 mmHg 87%
    21:00 +21°C° 0,8 mm 2 m/s 762 mmHg 90%
    22:00 +21°C° 0,8 mm 2 m/s 763 mmHg 94%
    23:00 +21°C° 0,4 mm 2 m/s 762 mmHg 94%

    2 Martie, Joi

    Timp Temperatura Precipitaţii Vânt Presiune Umiditate
    00:00 +20°C° 0,4 mm 2 m/s 762 mmHg 95%
    01:00 +20°C° 0,4 mm 2 m/s 762 mmHg 96%
    02:00 +20°C° 0,2 mm 2 m/s 761 mmHg 96%
    03:00 +20°C° 0,2 mm 2 m/s 761 mmHg 96%
    04:00 +20°C° 0,2 mm 2 m/s 761 mmHg 97%
    05:00 +20°C° 0,3 mm 2 m/s 761 mmHg 95%
    06:00 +20°C° 0,3 mm 2 m/s 761 mmHg 93%
    07:00 +21°C° 0,3 mm 3 m/s 762 mmHg 92%
    08:00 +24°C° 0,2 mm 3 m/s 762 mmHg 82%
    09:00 +26°C° 0,2 mm 3 m/s 762 mmHg 71%
    10:00 +28°C° 0,2 mm 3 m/s 761 mmHg 61%
    11:00 +28°C° 0,3 mm 3 m/s 761 mmHg 60%
    12:00 +29°C° 0,3 mm 3 m/s 760 mmHg 59%
    13:00 +29°C° 0,3 mm 3 m/s 760 mmHg 58%
    14:00 +29°C° 0,7 mm 4 m/s 760 mmHg 60%
    15:00 +28°C° 0,7 mm 4 m/s 759 mmHg 62%
    16:00 +28°C° 0,7 mm 5 m/s 759 mmHg 64%
    17:00 +27°C° 0,7 mm 5 m/s 760 mmHg 71%
    18:00 +25°C° 0,7 mm 5 m/s 760 mmHg 77%
    19:00 +23°C° 0,7 mm 5 m/s 760 mmHg 84%
    20:00 +22°C° 0,5 mm 5 m/s 761 mmHg 86%
    21:00 +22°C° 0,5 mm 5 m/s 761 mmHg 87%
    22:00 +22°C° 0,5 mm 4 m/s 761 mmHg 89%
    23:00 +21°C° 0,4 mm 5 m/s 760 mmHg 90%

    3 Martie, Vineri

    Timp Temperatura Precipitaţii Vânt Presiune Umiditate
    00:00 +21°C° 0,4 mm 5 m/s 760 mmHg 90%
    01:00 +21°C° 0,4 mm 5 m/s 759 mmHg 91%
    02:00 +21°C° 0,3 mm 5 m/s 759 mmHg 91%
    03:00 +21°C° 0,3 mm 4 m/s 759 mmHg 91%
    04:00 +21°C° 0,3 mm 4 m/s 759 mmHg 91%
    05:00 +21°C° 0,3 mm 4 m/s 759 mmHg 89%
    06:00 +22°C° 0,3 mm 5 m/s 759 mmHg 87%
    07:00 +23°C° 0,3 mm 5 m/s 760 mmHg 85%
    08:00 +23°C° 0,8 mm 5 m/s 760 mmHg 81%
    09:00 +25°C° 0,8 mm 5 m/s 760 mmHg 78%
    10:00 +26°C° 0,8 mm 5 m/s 760 mmHg 74%
    11:00 +26°C° 1,9 mm 5 m/s 760 mmHg 76%
    12:00 +25°C° 1,9 mm 5 m/s 760 mmHg 79%
    13:00 +25°C° 1,9 mm 5 m/s 759 mmHg 81%
    14:00 +23°C° 2 mm 6 m/s 759 mmHg 84%
    15:00 +23°C° 2 mm 6 m/s 759 mmHg 88%
    16:00 +22°C° 2 mm 7 m/s 759 mmHg 91%
    17:00 +22°C° 2,1 mm 7 m/s 760 mmHg 92%
    18:00 +22°C° 2,1 mm 7 m/s 760 mmHg 94%
    19:00 +21°C° 2,1 mm 7 m/s 760 mmHg 95%
    20:00 +21°C° 2,3 mm 7 m/s 760 mmHg 95%
    21:00 +21°C° 2,3 mm 7 m/s 760 mmHg 96%
    22:00 +21°C° 2,3 mm 7 m/s 760 mmHg 96%
    23:00 +21°C° 2,1 mm 7 m/s 760 mmHg 95%
    Arată mai mult